Weather Roundup
Issued by NWS

Home | Current Version | Previous Version | Graphics & Text | Print | Product List | Glossary Off
Versions: 1 2 3 4 5 6 7 8 9 10 11 12 13 14 15 16 17 18 19 20 21 22 23 24 25 26 27 28 29 30 31 32 33 34 35 36 37 38 39 40 41 42 43 44 45 46 47 48 49 50

000
NZUS93 KARX 262110
HRRWXR

CURRENT HOURLY OBSERVATIONS ACROSS
MUCH OF THE UPPER MISSISSIPPI VALLEY
NATIONAL WEATHER SERVICE LA CROSSE WI
400 PM CDT SUN APR 26 2015


...SOUTHEAST MINNESOTA...


CITY           SKY/WX    TMP DP  RH WIND       PRES   REMARKS
ROCHESTER      SUNNY     59  28  30 NE8       30.08F
ROCHESTER/MAYO FAIR      59  26  28 N6        30.07F
WINONA         SUNNY     61  27  27 NW5       30.06F
AUSTIN         SUNNY     57  28  33 N6        30.06F
ALBERT LEA     SUNNY     59  27  29 NE7       30.06F
DODGE CENTER   SUNNY     57  25  28 CALM      30.07F
PRESTON        SUNNY     57  25  29 N9G16     30.06F
OWATONNA       SUNNY     61  19  20 N5        30.07F
FARIBAULT      SUNNY     63  25  23 N9        30.08F
$$

...ELSEWHERE IN MINNESOTA...


CITY           SKY/WX    TMP DP  RH WIND       PRES   REMARKS
MINNEAPOLIS    MOSUNNY   61  22  22 E5        30.09F
INTNL FALLS    SUNNY     58   3  11 NE7       30.16F
DULUTH         SUNNY     54  15  21 E10       30.14F
RED WING       SUNNY     63  21  20 N7        30.06F
REDWOOD FALLS  SUNNY     65  20  17 N9        30.07F
MANKATO        SUNNY     61  23  23 NE7       30.07F
WORTHINGTON    SUNNY     63  28  27 NE10      30.05F
FAIRMONT       SUNNY     64  30  27 N6        30.05S
$$

...SOUTHWEST WISCONSIN...


CITY           SKY/WX    TMP DP  RH WIND       PRES   REMARKS
LA CROSSE      SUNNY     63  23  21 W6        30.04F
PRAIRIE DU CHI SUNNY     61  22  22 NW10G18   30.03F
BOSCOBEL       SUNNY     63  23  21 E6        30.03F
LONE ROCK      SUNNY     60  27  28 NW7       30.03F
PLATTEVILLE    SUNNY     59  28  31 N6        30.02F
FORT MC COY    SUNNY     63  21  20 N12       30.04F
CAMP DOUGLAS   SUNNY     63  23  22 VRB6      30.02F
VIROQUA        FAIR      59  23  25 NW5       30.04F
WIS DELLS      SUNNY     60  21  22 N6        30.02F
$$

...ELSEWHERE IN WISCONSIN...


CITY           SKY/WX    TMP DP  RH WIND       PRES   REMARKS
MILWAUKEE      MOSUNNY   50  30  46 NE14      30.03S
MADISON        MOSUNNY   59  27  29 N9        30.02F
GREEN BAY      SUNNY     59  27  29 E12       30.02S
EAU CLAIRE     SUNNY     63  23  21 VRB7G17   30.06F
BLACK RVR FLS  FAIR      63  18  18 N8        30.04F
MEDFORD        SUNNY     59  23  24 N12       30.04F
WAUSAU         SUNNY     61  18  18 N12G18    30.01F
WIS RAPIDS     SUNNY     62  19  19 N9G18     30.04F
MARSHFIELD     SUNNY     62  24  23 N9G18     30.04F
RICE LAKE      SUNNY     60  24  24 N14       30.10F
$$

...NORTHEAST IOWA...


CITY           SKY/WX    TMP DP  RH WIND       PRES   REMARKS
DECORAH        SUNNY     57  23  26 NE9       30.03F
MASON CITY     SUNNY     61  27  27 NE10G18   30.06F
CHARLES CITY   SUNNY     59  25  27 NE12G25   30.05F
OELWEIN        SUNNY     59  25  27 NE9       30.04F
$$

...ELSEWHERE IN IOWA...


CITY           SKY/WX    TMP DP  RH WIND       PRES   REMARKS
DES MOINES     SUNNY     64  28  25 E10       30.02F
IOWA CITY      SUNNY     59  31  34 VRB3      30.03F
FORT DODGE     SUNNY     63  34  34 NE8       30.04F
$$

...NORTHERN ILLINOIS...


CITY           SKY/WX    TMP DP  RH WIND       PRES   REMARKS
CHICAGO-OHARE  MOSUNNY   55  26  32 NE18G28   30.00F
CHICAGO-MIDWAY MOSUNNY   56  27  32 NE16G24   30.01S
MOLINE         SUNNY     60  31  33 N3        30.00F
ROCKFORD       MOSUNNY   60  29  30 NE13G23   30.02F
PEORIA         SUNNY     61  34  36 NE13G20   29.99F
$$

NOTE: "FAIR" INDICATES FEW OR NO CLOUDS BELOW 12,000 FEET WITH NO
SIGNIFICANT WEATHER AND/OR OBSTRUCTIONS TO VISIBILITY. WIND
SPEEDS ARE IN MILES-PER-HOUR.



USA.gov is the U.S. government's official web portal to all federal, state and local government web resources and services.